This is the latest recevied weather packets stored in our database for station/object XE1GMR. If no packets are shown the sender has not sent any weather packets the latest 10 day(s).
| Time | Temp. | Humidity | Pressure | Rain* | Wind** | Luminosity | Snow |
|---|---|---|---|---|---|---|---|
| 1777820554 | 19.44° C | 68% | 1125 hPa | 0 mm | - | 382 W/m² | - |
| 1777820251 | 19.44° C | 69% | 1125.2 hPa | 0 mm | - | 180 W/m² | - |
| 1777819949 | 18.89° C | 69% | 1124.9 hPa | 0 mm | - | 143 W/m² | - |
| 1777819646 | 18.89° C | 70% | 1124.9 hPa | 0 mm | - | 108 W/m² | - |
| 1777819344 | 18.89° C | 70% | 1124.9 hPa | 0 mm | - | 122 W/m² | - |
| 1777819040 | 18.89° C | 70% | 1124.9 hPa | 0 mm | - | 112 W/m² | - |
| 1777818738 | 18.89° C | 70% | 1124.9 hPa | 0 mm | - | 100 W/m² | - |
| 1777818434 | 18.89° C | 70% | 1125.1 hPa | 0 mm | - | 81 W/m² | - |
| 1777818131 | 18.89° C | 70% | 1124.9 hPa | 0 mm | - | 95 W/m² | - |
| 1777817827 | 18.89° C | 70% | 1124.7 hPa | 0 mm | - | 95 W/m² | - |
| 1777817525 | 18.89° C | 71% | 1124.8 hPa | 0 mm | - | 91 W/m² | - |
| 1777817221 | 18.89° C | 71% | 1124.5 hPa | 0 mm | - | 98 W/m² | - |
| 1777816919 | 18.89° C | 71% | 1124.5 hPa | 0 mm | - | 109 W/m² | - |
| 1777816615 | 18.89° C | 71% | 1124.5 hPa | 0 mm | - | 97 W/m² | - |
| 1777816312 | 18.89° C | 71% | 1124.4 hPa | 0 mm | - | 93 W/m² | - |
| 1777816010 | 18.33° C | 71% | 1124.5 hPa | 0 mm | - | 107 W/m² | - |
| 1777815707 | 18.33° C | 71% | 1124.1 hPa | 0 mm | - | 108 W/m² | - |
| 1777815404 | 18.33° C | 71% | 1123.9 hPa | 0 mm | - | 78 W/m² | - |
| 1777815101 | 18.89° C | 71% | 1123.9 hPa | 0 mm | - | 68 W/m² | - |
| 1777814797 | 18.89° C | 71% | 1124.1 hPa | 0 mm | - | 59 W/m² | - |
| 1777814495 | 18.89° C | 71% | 1123.9 hPa | 0 mm | - | 52 W/m² | - |
| 1777814192 | 18.89° C | 71% | 1123.7 hPa | 0 mm | - | 68 W/m² | - |
| 1777813889 | 18.33° C | 71% | 1123.6 hPa | 0 mm | - | 88 W/m² | - |
| 1777813586 | 18.33° C | 71% | 1123.6 hPa | 0 mm | - | 64 W/m² | - |
| 1777813284 | 18.33° C | 71% | 1123.5 hPa | 0 mm | - | 56 W/m² | - |
* Rain latest hour (hover to see other rain measurements)
** Current wind speed in m/s (hover to see current wind gust speed)